Terminal Aerodrome Forecast
Issued by NWS Raleigh/Durham, NC

Home | Current Version | Previous Version | Text Only | Print | Product List | Glossary On
Versions: 1 2 3 4 5 6 7 8 9 10 11 12 13 14 15 16 17 18 19 20 21 22 23 24 25 26 27 28 29 30 31 32 33 34 35 36 37 38 39 40 41 42 43 44 45
000
FTUS42 KRAH 031135
TAFGSO
TAF
KGSO 031135Z 0312/0412 VRB03KT P6SM SCT050 SCT250
      TEMPO 0319/0323 BKN050
     FM040300 20003KT P6SM OVC100=

USA.gov is the U.S. government's official web portal to all federal, state and local government web resources and services.